Hourly Weather Bolshie Toronkovichi

Today, 20 June, Sunday

Time Temperature Precipitation Wind Pressure Humidity
00:00 +19°C° 0 mm 2 mps 744 mmHg 92%
01:00 +18°C° 0 mm 2 mps 744 mmHg 92%
02:00 +18°C° 0 mm 2 mps 744 mmHg 92%
03:00 +19°C° 0 mm 2 mps 744 mmHg 92%
04:00 +19°C° 0 mm 2 mps 744 mmHg 92%
05:00 +19°C° 0 mm 2 mps 744 mmHg 91%
06:00 +21°C° 0 mm 2 mps 744 mmHg 86%
07:00 +24°C° 0 mm 2 mps 744 mmHg 80%
08:00 +26°C° 0 mm 2 mps 744 mmHg 74%
09:00 +27°C° 0 mm 3 mps 744 mmHg 69%
10:00 +28°C° 0 mm 3 mps 744 mmHg 64%
11:00 +29°C° 0 mm 3 mps 744 mmHg 59%
12:00 +29°C° 0 mm 3 mps 744 mmHg 57%
13:00 +30°C° 0 mm 3 mps 744 mmHg 55%
14:00 +30°C° 0 mm 4 mps 743 mmHg 54%
15:00 +30°C° 0 mm 3 mps 743 mmHg 56%
16:00 +30°C° 0 mm 3 mps 743 mmHg 59%
17:00 +29°C° 0 mm 3 mps 743 mmHg 62%
18:00 +28°C° 0 mm 3 mps 742 mmHg 69%
19:00 +26°C° 0 mm 3 mps 742 mmHg 77%
20:00 +25°C° 0 mm 2 mps 742 mmHg 84%
21:00 +24°C° 0 mm 2 mps 742 mmHg 86%
22:00 +21°C° 0 mm 2 mps 742 mmHg 88%
23:00 +20°C° 0 mm 2 mps 742 mmHg 91%

Tomorrow, 21 June, Monday

Time Temperature Precipitation Wind Pressure Humidity
00:00 +20°C° 0 mm 2 mps 742 mmHg 91%
01:00 +19°C° 0 mm 2 mps 742 mmHg 91%
02:00 +19°C° 0 mm 2 mps 742 mmHg 91%
03:00 +19°C° 0 mm 2 mps 742 mmHg 90%
04:00 +19°C° 0 mm 2 mps 742 mmHg 89%
05:00 +19°C° 0 mm 2 mps 742 mmHg 88%
06:00 +21°C° 0 mm 2 mps 742 mmHg 82%
07:00 +22°C° 0 mm 3 mps 742 mmHg 76%
08:00 +25°C° 0 mm 3 mps 742 mmHg 70%
09:00 +26°C° 0 mm 4 mps 742 mmHg 65%
10:00 +27°C° 0 mm 4 mps 742 mmHg 60%
11:00 +28°C° 0 mm 4 mps 742 mmHg 55%
12:00 +29°C° 0 mm 4 mps 741 mmHg 53%
13:00 +29°C° 0 mm 4 mps 741 mmHg 52%
14:00 +30°C° 0 mm 5 mps 741 mmHg 50%
15:00 +29°C° 0 mm 4 mps 741 mmHg 54%
16:00 +29°C° 0 mm 4 mps 741 mmHg 58%
17:00 +28°C° 0 mm 4 mps 740 mmHg 62%
18:00 +27°C° 0 mm 4 mps 740 mmHg 68%
19:00 +25°C° 0 mm 4 mps 740 mmHg 74%
20:00 +23°C° 0 mm 4 mps 740 mmHg 80%
21:00 +22°C° 0 mm 3 mps 740 mmHg 83%
22:00 +22°C° 0 mm 3 mps 740 mmHg 85%
23:00 +21°C° 0 mm 3 mps 740 mmHg 88%

Day after tomorrow, 22 June, Tuesday

Time Temperature Precipitation Wind Pressure Humidity
00:00 +21°C° 0 mm 3 mps 740 mmHg 90%
01:00 +20°C° 0 mm 3 mps 740 mmHg 91%
02:00 +20°C° 0 mm 3 mps 740 mmHg 92%
03:00 +20°C° 0 mm 3 mps 740 mmHg 92%
04:00 +20°C° 0 mm 3 mps 740 mmHg 92%
05:00 +20°C° 0 mm 3 mps 740 mmHg 92%
06:00 +22°C° 0 mm 3 mps 740 mmHg 86%
07:00 +23°C° 0 mm 4 mps 740 mmHg 80%
08:00 +26°C° 0 mm 4 mps 740 mmHg 75%
09:00 +27°C° 0 mm 5 mps 740 mmHg 70%
10:00 +28°C° 0 mm 5 mps 741 mmHg 66%
11:00 +29°C° 0 mm 5 mps 741 mmHg 61%
12:00 +30°C° 0.3 mm 5 mps 741 mmHg 61%
13:00 +30°C° 0.3 mm 4 mps 741 mmHg 60%
14:00 +30°C° 0.3 mm 4 mps 741 mmHg 59%
15:00 +30°C° 0.2 mm 4 mps 741 mmHg 61%
16:00 +30°C° 0.2 mm 4 mps 741 mmHg 62%
17:00 +30°C° 0.2 mm 4 mps 740 mmHg 63%
18:00 +28°C° 0 mm 3 mps 740 mmHg 69%
19:00 +27°C° 0 mm 3 mps 740 mmHg 75%
20:00 +25°C° 0 mm 3 mps 740 mmHg 81%
21:00 +24°C° 0 mm 3 mps 741 mmHg 83%
22:00 +22°C° 0 mm 3 mps 741 mmHg 85%
23:00 +21°C° 0 mm 3 mps 741 mmHg 87%

23 June, Wednesday

Time Temperature Precipitation Wind Pressure Humidity
00:00 +20°C° 0 mm 3 mps 741 mmHg 89%
01:00 +20°C° 0 mm 3 mps 741 mmHg 90%
02:00 +19°C° 0 mm 2 mps 741 mmHg 92%
03:00 +19°C° 0 mm 2 mps 742 mmHg 91%
04:00 +19°C° 0 mm 2 mps 742 mmHg 91%
05:00 +19°C° 0 mm 2 mps 742 mmHg 90%
06:00 +21°C° 0 mm 2 mps 742 mmHg 84%
07:00 +24°C° 0 mm 3 mps 742 mmHg 77%
08:00 +26°C° 0 mm 3 mps 743 mmHg 71%
09:00 +27°C° 0 mm 4 mps 743 mmHg 66%
10:00 +29°C° 0 mm 4 mps 743 mmHg 60%
11:00 +30°C° 0 mm 4 mps 743 mmHg 55%
12:00 +32°C° 0 mm 4 mps 743 mmHg 53%
13:00 +32°C° 0 mm 4 mps 743 mmHg 51%
14:00 +33°C° 0 mm 4 mps 743 mmHg 49%
15:00 +33°C° 0.1 mm 4 mps 743 mmHg 51%
16:00 +33°C° 0.1 mm 4 mps 742 mmHg 54%
17:00 +33°C° 0.1 mm 3 mps 742 mmHg 57%
18:00 +30°C° 0.1 mm 3 mps 742 mmHg 65%
19:00 +28°C° 0.1 mm 3 mps 742 mmHg 73%
20:00 +26°C° 0.1 mm 3 mps 742 mmHg 81%
21:00 +25°C° 0 mm 3 mps 742 mmHg 83%
22:00 +24°C° 0 mm 2 mps 742 mmHg 86%
23:00 +23°C° 0 mm 2 mps 743 mmHg 88%

24 June, Thursday

Time Temperature Precipitation Wind Pressure Humidity
00:00 +23°C° 0 mm 2 mps 742 mmHg 90%
01:00 +23°C° 0 mm 2 mps 742 mmHg 91%
02:00 +21°C° 0 mm 2 mps 742 mmHg 93%
03:00 +21°C° 0 mm 2 mps 742 mmHg 93%
04:00 +23°C° 0 mm 2 mps 742 mmHg 93%
05:00 +23°C° 0 mm 2 mps 742 mmHg 93%
06:00 +24°C° 0 mm 2 mps 742 mmHg 86%
07:00 +26°C° 0 mm 3 mps 743 mmHg 78%
08:00 +28°C° 0 mm 3 mps 743 mmHg 71%
09:00 +29°C° 0 mm 3 mps 743 mmHg 64%
10:00 +30°C° 0 mm 3 mps 743 mmHg 57%
11:00 +33°C° 0 mm 4 mps 743 mmHg 50%
12:00 +33°C° 0 mm 4 mps 743 mmHg 48%
13:00 +34°C° 0 mm 4 mps 742 mmHg 45%
14:00 +34°C° 0 mm 4 mps 742 mmHg 43%
15:00 +34°C° 0.2 mm 3 mps 742 mmHg 47%
16:00 +33°C° 0.2 mm 3 mps 741 mmHg 51%
17:00 +31°C° 0.2 mm 3 mps 741 mmHg 55%
18:00 +28°C° 3.2 mm 3 mps 741 mmHg 66%
19:00 +25°C° 3.2 mm 4 mps 741 mmHg 78%
20:00 +20°C° 3.2 mm 5 mps 741 mmHg 89%
21:00 +20°C° 0.2 mm 4 mps 741 mmHg 88%
22:00 +20°C° 0.2 mm 3 mps 741 mmHg 87%
23:00 +19°C° 0.2 mm 2 mps 741 mmHg 86%

25 June, Friday

Time Temperature Precipitation Wind Pressure Humidity
00:00 +19°C° 0 mm 2 mps 741 mmHg 87%
01:00 +19°C° 0 mm 2 mps 740 mmHg 88%
02:00 +19°C° 0 mm 2 mps 740 mmHg 89%
03:00 +19°C° 0.1 mm 2 mps 740 mmHg 90%
04:00 +19°C° 0.1 mm 2 mps 740 mmHg 91%
05:00 +20°C° 0.1 mm 2 mps 740 mmHg 91%
06:00 +21°C° 0.1 mm 2 mps 740 mmHg 88%
07:00 +23°C° 0.1 mm 2 mps 740 mmHg 84%
08:00 +25°C° 0.1 mm 2 mps 740 mmHg 81%
09:00 +26°C° 0 mm 3 mps 740 mmHg 76%
10:00 +27°C° 0 mm 3 mps 740 mmHg 71%
11:00 +29°C° 0 mm 3 mps 740 mmHg 66%
12:00 +29°C° 0 mm 3 mps 739 mmHg 61%
13:00 +30°C° 0 mm 3 mps 739 mmHg 56%
14:00 +32°C° 0 mm 4 mps 739 mmHg 52%
15:00 +31°C° 0 mm 3 mps 739 mmHg 53%
16:00 +31°C° 0 mm 3 mps 738 mmHg 55%
17:00 +31°C° 0 mm 3 mps 738 mmHg 57%
18:00 +29°C° 0 mm 3 mps 738 mmHg 63%
19:00 +27°C° 0 mm 3 mps 737 mmHg 70%
20:00 +25°C° 0 mm 2 mps 737 mmHg 77%
21:00 +24°C° 0 mm 2 mps 737 mmHg 76%
22:00 +24°C° 0 mm 3 mps 737 mmHg 75%
23:00 +22°C° 0 mm 3 mps 737 mmHg 75%
Show more